Terug naar catalogus

STARLINK-31401

ActiefCommunicatieVLEO
NORAD 59417·PAYLOAD·🇺🇸 United States

Gelanceerd Apr 5, 2024 vanaf Cape Canaveral Space Force Station

Loading…

Volgende Passages (komende 24 uur)

TLE

VersSource: CelesTrak SupGP

Epoch: Sep 14, 2026, 22:10 UTC

1 59417C 24064V   26257.92409722  .00044615  00000+0  16163-2 0  2574
2 59417  43.0040  60.5649 0001468 273.4889 191.7618 15.27548261    14

Volg STARLINK-31401 in realtime met AllMySat

Download on the App Store